Location: Country View Observatory
(32.9873°N, 83.6444°W)
Time: 01:03:29
(UTC-04:00)

ISS - Pass Details

Date: 18 September 2019
Orbit: 411 x 421 km, 51.6° (Epoch: 16 October)

Event Time Altitude Azimuth Distance (km) Brightness Sun altitude
Rises 19:56:13 0° 197° (SSW) 2,324 0.2 -4.9°
Reaches altitude 10° 19:58:35 10° 181° (S) 1,467 -1.0 -5.4°
Maximum altitude 20:01:12 22° 129° (SE) 954 -2.4 -5.9°
Drops below altitude 10° 20:03:49 10° 76° (ENE) 1,473 -1.6 -6.4°
Enters shadow 20:04:42 - 68° (ENE) 1,779 -1.1 -6.6°
